This is the latest recevied weather packets stored in our database for station/object WX5KDM. If no packets are shown the sender has not sent any weather packets the latest 1 day(s).
| Time | Temp. | Humidity | Pressure | Rain* | Wind** | Luminosity | Snow |
|---|---|---|---|---|---|---|---|
| 1778028649 | 21.67° C | 78% | 1009.3 hPa | 0 mm | 2.24 m/s, 155° | - | - |
| 1778028346 | 21.67° C | 78% | 1009.3 hPa | 0 mm | 0.89 m/s, 154° | - | - |
| 1778028047 | 21.67° C | 78% | 1009.4 hPa | 0 mm | 0.89 m/s, 260° | - | - |
| 1778027739 | 21.67° C | 78% | 1009.2 hPa | 0 mm | 0.45 m/s, 204° | - | - |
| 1778027436 | 21.67° C | 78% | 1009.2 hPa | 0 mm | 0 m/s | - | - |
| 1778027131 | 21.67° C | 78% | 1009.2 hPa | 0 mm | 0.89 m/s, 170° | - | - |
| 1778026827 | 21.67° C | 77% | 1009.2 hPa | 0 mm | 0.89 m/s, 184° | - | - |
| 1778026524 | 21.67° C | 77% | 1009.6 hPa | 0 mm | 1.79 m/s, 129° | - | - |
| 1778026221 | 22.22° C | 77% | 1009.5 hPa | 0 mm | 0.45 m/s, 223° | - | - |
| 1778025919 | 22.22° C | 77% | 1009.7 hPa | 0 mm | 1.34 m/s, 208° | - | - |
| 1778025616 | 22.22° C | 77% | 1009.9 hPa | 0 mm | 2.24 m/s, 157° | - | - |
| 1778025314 | 22.22° C | 77% | 1009.9 hPa | 0 mm | 1.34 m/s, 208° | - | - |
| 1778025010 | 22.22° C | 77% | 1009.9 hPa | 0 mm | 1.79 m/s, 182° | - | - |
| 1778024708 | 22.22° C | 77% | 1009.8 hPa | 0 mm | 0.89 m/s, 173° | - | - |
| 1778024404 | 22.22° C | 77% | 1010.2 hPa | 0 mm | 1.34 m/s, 168° | - | - |
| 1778024102 | 22.22° C | 77% | 1009.9 hPa | 0 mm | 0.89 m/s, 94° | - | - |
| 1778023799 | 22.22° C | 77% | 1009.9 hPa | 0 mm | 0.89 m/s, 215° | - | - |
| 1778023497 | 22.22° C | 77% | 1009.9 hPa | 0 mm | 1.79 m/s, 229° | - | - |
| 1778023194 | 22.22° C | 78% | 1010.1 hPa | 0 mm | 1.34 m/s, 236° | - | - |
| 1778022891 | 22.22° C | 78% | 1010.1 hPa | 0 mm | 0.89 m/s, 223° | - | - |
| 1778022589 | 22.22° C | 76% | 1010.1 hPa | 0 mm | 1.34 m/s, 227° | - | - |
| 1778022287 | 22.78° C | 75% | 1010.2 hPa | 0 mm | 0.89 m/s, 192° | - | - |
| 1778021983 | 22.78° C | 72% | 1010.2 hPa | 0 mm | 1.34 m/s, 177° | - | - |
| 1778021680 | 22.78° C | 72% | 1009.9 hPa | 0 mm | 1.79 m/s, 271° | - | - |
| 1778021376 | 22.78° C | 71% | 1010.1 hPa | 0 mm | 2.68 m/s, 233° | - | - |
* Rain latest hour (hover to see other rain measurements)
** Current wind speed in m/s (hover to see current wind gust speed)